Location: Newark
(52.3500°N, 175.9667°E)
Time: 20:24:04
(UTC+00:00)

Transit 4A - Pass Details

Date: 20 April 2021
Orbit: 871 x 974 km, 66.8° (Epoch: 16 May)

Event Time Altitude Azimuth Distance (km) Brightness Sun altitude
Rises 20:08:43 0° 320° (NW) 3,530 10.5 26.5°
Reaches altitude 10° 20:11:15 10° 318° (NW) 2,572 9.8 26.9°
Maximum altitude 20:17:08 67° 237° (WSW) 956 8.3 27.8°
Drops below altitude 10° 20:22:53 10° 156° (SSE) 2,516 10.9 28.6°
Sets 20:25:21 0° 154° (SSE) 3,448 11.5 29.0°
